Time,TemperatureF,DewpointF,PressureIn,WindDirection,WindDirectionDegrees,WindSpeedMPH,WindSpeedGustMPH,Humidity,HourlyPrecipIn,Conditions,Clouds,dailyrainin,SoftwareType,DateUTC
2013-10-16 00:01:00,61.0,52.3,29.99,SE,135,3.0,4.0,73,0.00,,---,0.00,VWS V14.01,2013-10-16 04:01:00,
2013-10-16 00:02:00,61.0,52.3,29.99,SSE,158,5.0,11.0,73,0.00,,---,0.00,VWS V14.01,2013-10-16 04:02:00,
2013-10-16 00:03:00,61.0,52.3,29.99,South,180,8.0,11.0,73,0.00,,---,0.00,VWS V14.01,2013-10-16 04:03:00,
2013-10-16 00:06:00,61.0,52.3,30.00,SSE,158,5.0,11.0,73,0.00,,---,0.00,VWS V14.01,2013-10-16 04:06:00,
2013-10-16 00:11:00,61.0,51.9,29.99,SE,135,8.0,12.0,72,0.00,,---,0.00,VWS V14.01,2013-10-16 04:11:00,
2013-10-16 00:17:00,61.0,51.9,29.99,SSE,158,7.0,13.0,72,0.00,,---,0.00,VWS V14.01,2013-10-16 04:17:00,
2013-10-16 00:22:00,61.0,51.9,29.99,SSE,158,6.0,13.0,72,0.00,,---,0.00,VWS V14.01,2013-10-16 04:22:00,
2013-10-16 00:27:00,61.0,51.9,29.99,ESE,112,6.0,14.0,72,0.00,,---,0.00,VWS V14.01,2013-10-16 04:27:00,
2013-10-16 00:32:00,61.0,51.9,29.98,SSE,158,8.0,14.0,72,0.00,,---,0.00,VWS V14.01,2013-10-16 04:32:00,
2013-10-16 00:37:00,61.0,51.9,29.98,SSE,158,8.0,14.0,72,0.00,,---,0.00,VWS V14.01,2013-10-16 04:37:00,
2013-10-16 00:42:00,61.0,51.9,29.98,South,180,5.0,7.0,72,0.00,,---,0.00,VWS V14.01,2013-10-16 04:42:00,
2013-10-16 00:47:00,61.0,51.9,29.98,South,180,5.0,11.0,72,0.00,,---,0.00,VWS V14.01,2013-10-16 04:47:00,
2013-10-16 00:52:00,61.0,51.9,29.99,SE,135,9.0,11.0,72,0.00,,---,0.00,VWS V14.01,2013-10-16 04:52:00,
2013-10-16 00:58:00,61.0,51.9,29.99,South,180,5.0,14.0,72,0.00,,---,0.00,VWS V14.01,2013-10-16 04:58:00,
2013-10-16 01:03:00,61.0,51.9,29.99,South,180,5.0,10.0,72,0.00,,---,0.00,VWS V14.01,2013-10-16 05:03:00,
2013-10-16 01:08:00,61.0,51.9,29.99,South,180,5.0,11.0,72,0.00,,---,0.00,VWS V14.01,2013-10-16 05:08:00,
2013-10-16 01:13:00,61.0,51.9,29.99,SSE,158,6.0,11.0,72,0.00,,---,0.00,VWS V14.01,2013-10-16 05:13:00,
2013-10-16 01:18:00,61.0,51.9,29.99,South,180,6.0,14.0,72,0.00,,---,0.00,VWS V14.01,2013-10-16 05:18:00,
2013-10-16 01:23:00,61.0,51.9,29.99,SE,135,7.0,10.0,72,0.00,,---,0.00,VWS V14.01,2013-10-16 05:23:00,
2013-10-16 01:28:00,61.0,51.9,29.98,SSE,158,7.0,13.0,72,0.00,,---,0.00,VWS V14.01,2013-10-16 05:28:00,
2013-10-16 01:33:00,61.0,51.9,29.98,SSE,158,8.0,15.0,72,0.00,,---,0.00,VWS V14.01,2013-10-16 05:33:00,
2013-10-16 01:39:00,60.0,51.0,29.98,SE,135,11.0,15.0,72,0.00,,---,0.00,VWS V14.01,2013-10-16 05:39:00,
2013-10-16 01:44:00,60.0,51.0,29.98,South,180,5.0,11.0,72,0.00,,---,0.00,VWS V14.01,2013-10-16 05:44:00,
2013-10-16 01:49:00,60.0,51.0,29.98,SE,135,4.0,16.0,72,0.00,,---,0.00,VWS V14.01,2013-10-16 05:49:00,
2013-10-16 01:54:00,60.0,51.0,29.98,SE,135,11.0,16.0,72,0.00,,---,0.00,VWS V14.01,2013-10-16 05:54:00,
2013-10-16 01:59:00,60.0,51.0,29.98,SSE,158,7.0,16.0,72,0.00,,---,0.00,VWS V14.01,2013-10-16 05:59:00,
2013-10-16 02:04:00,60.0,51.0,29.98,SE,135,10.0,13.0,72,0.00,,---,0.00,VWS V14.01,2013-10-16 06:04:00,
2013-10-16 02:09:00,60.0,51.0,29.98,South,180,8.0,14.0,72,0.00,,---,0.00,VWS V14.01,2013-10-16 06:09:00,
2013-10-16 02:15:00,60.0,51.0,29.98,South,180,6.0,14.0,72,0.00,,---,0.00,VWS V14.01,2013-10-16 06:15:00,
2013-10-16 02:20:00,60.0,51.0,29.99,ESE,112,7.0,14.0,72,0.00,,---,0.00,VWS V14.01,2013-10-16 06:20:00,
2013-10-16 02:25:00,60.0,51.0,29.99,South,180,14.0,14.0,72,0.00,,---,0.00,VWS V14.01,2013-10-16 06:25:00,
2013-10-16 02:30:00,60.0,51.0,29.98,SE,135,5.0,15.0,72,0.00,,---,0.00,VWS V14.01,2013-10-16 06:30:00,
2013-10-16 02:35:00,60.0,50.6,29.98,SSE,158,9.0,15.0,71,0.00,,---,0.00,VWS V14.01,2013-10-16 06:35:00,
2013-10-16 02:40:00,60.0,50.6,29.98,SE,135,11.0,13.0,71,0.00,,---,0.00,VWS V14.01,2013-10-16 06:40:00,
2013-10-16 02:45:00,60.0,50.6,29.97,SSE,158,6.0,13.0,71,0.00,,---,0.00,VWS V14.01,2013-10-16 06:45:00,
2013-10-16 02:50:00,60.0,50.6,29.97,SE,135,7.0,13.0,71,0.00,,---,0.00,VWS V14.01,2013-10-16 06:50:00,
2013-10-16 02:55:00,60.0,50.6,29.97,South,180,5.0,13.0,71,0.00,,---,0.00,VWS V14.01,2013-10-16 06:55:00,
2013-10-16 03:00:00,60.0,50.6,29.97,SW,225,5.0,8.0,71,0.00,,---,0.00,VWS V14.01,2013-10-16 07:00:00,
2013-10-16 03:06:00,60.0,50.6,29.97,South,180,6.0,13.0,71,0.00,,---,0.00,VWS V14.01,2013-10-16 07:06:00,
2013-10-16 03:11:00,60.0,50.6,29.97,SSW,202,8.0,13.0,71,0.00,,---,0.00,VWS V14.01,2013-10-16 07:11:00,
2013-10-16 03:16:00,60.0,50.6,29.97,South,180,5.0,13.0,71,0.00,,---,0.00,VWS V14.01,2013-10-16 07:16:00,
2013-10-16 03:21:00,60.0,50.6,29.96,SW,225,3.0,5.0,71,0.00,,---,0.00,VWS V14.01,2013-10-16 07:21:00,
2013-10-16 03:26:00,60.0,50.6,29.96,SE,135,6.0,10.0,71,0.00,,---,0.00,VWS V14.01,2013-10-16 07:26:00,
2013-10-16 03:31:00,60.0,50.6,29.96,SSE,158,6.0,10.0,71,0.00,,---,0.00,VWS V14.01,2013-10-16 07:31:00,
2013-10-16 03:36:00,60.0,50.6,29.96,South,180,6.0,10.0,71,0.00,,---,0.00,VWS V14.01,2013-10-16 07:36:00,
2013-10-16 03:41:00,60.0,50.6,29.96,SE,135,6.0,7.0,71,0.00,,---,0.00,VWS V14.01,2013-10-16 07:41:00,
2013-10-16 03:46:00,60.0,50.6,29.96,South,180,6.0,12.0,71,0.00,,---,0.00,VWS V14.01,2013-10-16 07:46:00,
2013-10-16 03:52:00,60.0,50.6,29.96,SSE,158,9.0,12.0,71,0.00,,---,0.00,VWS V14.01,2013-10-16 07:52:00,
2013-10-16 03:57:00,60.0,50.6,29.96,South,180,7.0,12.0,71,0.00,,---,0.00,VWS V14.01,2013-10-16 07:57:00,
2013-10-16 04:02:00,60.0,50.6,29.96,South,180,6.0,9.0,71,0.00,,---,0.00,VWS V14.01,2013-10-16 08:02:00,
2013-10-16 04:07:00,59.0,49.6,29.96,SE,135,8.0,11.0,71,0.00,,---,0.00,VWS V14.01,2013-10-16 08:07:00,
2013-10-16 04:12:00,59.0,49.6,29.96,SW,225,3.0,11.0,71,0.00,,---,0.00,VWS V14.01,2013-10-16 08:12:00,
2013-10-16 04:17:00,59.0,50.0,29.96,SSW,202,5.0,11.0,72,0.00,,---,0.00,VWS V14.01,2013-10-16 08:17:00,
2013-10-16 04:22:00,59.0,50.0,29.96,SE,135,5.0,9.0,72,0.00,,---,0.00,VWS V14.01,2013-10-16 08:22:00,
2013-10-16 04:27:00,59.0,50.0,29.96,South,180,3.0,10.0,72,0.00,,---,0.00,VWS V14.01,2013-10-16 08:27:00,
2013-10-16 04:32:00,59.0,50.0,29.96,SE,135,5.0,12.0,72,0.00,,---,0.00,VWS V14.01,2013-10-16 08:32:00,
2013-10-16 04:37:00,59.0,50.0,29.96,South,180,8.0,12.0,72,0.00,,---,0.00,VWS V14.01,2013-10-16 08:37:00,
2013-10-16 04:42:00,59.0,50.0,29.96,South,180,8.0,10.0,72,0.00,,---,0.00,VWS V14.01,2013-10-16 08:42:00,
2013-10-16 04:48:00,59.0,50.4,29.96,SSE,158,8.0,15.0,73,0.00,,---,0.00,VWS V14.01,2013-10-16 08:48:00,
2013-10-16 04:53:00,59.0,50.7,29.96,South,180,3.0,15.0,74,0.00,,---,0.00,VWS V14.01,2013-10-16 08:53:00,
2013-10-16 04:58:00,59.0,51.1,29.96,South,180,5.0,15.0,75,0.00,,---,0.00,VWS V14.01,2013-10-16 08:58:00,
2013-10-16 05:03:00,59.0,51.5,29.96,SSW,202,6.0,9.0,76,0.00,,---,0.00,VWS V14.01,2013-10-16 09:03:00,
2013-10-16 05:08:00,58.0,51.2,29.96,SSW,202,5.0,9.0,78,0.00,,---,0.00,VWS V14.01,2013-10-16 09:08:00,
2013-10-16 05:13:00,57.0,51.2,29.96,SSW,202,3.0,9.0,81,0.01,,---,0.01,VWS V14.01,2013-10-16 09:13:00,
2013-10-16 05:18:00,57.0,51.9,29.96,SSE,158,6.0,9.0,83,0.01,,---,0.01,VWS V14.01,2013-10-16 09:18:00,
2013-10-16 05:23:00,57.0,52.2,29.96,South,180,6.0,10.0,84,0.01,,---,0.01,VWS V14.01,2013-10-16 09:23:00,
2013-10-16 05:28:00,56.0,51.6,29.96,SSW,202,3.0,10.0,85,0.01,,---,0.01,VWS V14.01,2013-10-16 09:28:00,
2013-10-16 05:33:00,56.0,52.2,29.96,SSE,158,6.0,11.0,87,0.01,,---,0.01,VWS V14.01,2013-10-16 09:33:00,
2013-10-16 05:38:00,56.0,52.2,29.95,SSW,202,7.0,12.0,87,0.01,,---,0.01,VWS V14.01,2013-10-16 09:38:00,
2013-10-16 05:43:00,56.0,52.5,29.95,SSW,202,6.0,9.0,88,0.01,,---,0.01,VWS V14.01,2013-10-16 09:43:00,
2013-10-16 05:48:00,56.0,52.5,29.95,SW,225,3.0,11.0,88,0.02,,---,0.02,VWS V14.01,2013-10-16 09:48:00,
2013-10-16 05:54:00,56.0,52.8,29.95,SSW,202,5.0,11.0,89,0.02,,---,0.02,VWS V14.01,2013-10-16 09:54:00,
2013-10-16 05:59:00,56.0,52.8,29.95,SSW,202,5.0,11.0,89,0.02,,---,0.02,VWS V14.01,2013-10-16 09:59:00,
2013-10-16 06:04:00,56.0,52.8,29.95,South,180,5.0,12.0,89,0.02,,---,0.02,VWS V14.01,2013-10-16 10:04:00,
2013-10-16 06:09:00,56.0,52.8,29.95,SSW,202,6.0,14.0,89,0.02,,---,0.02,VWS V14.01,2013-10-16 10:09:00,
2013-10-16 06:14:00,56.0,52.8,29.95,South,180,10.0,16.0,89,0.02,,---,0.02,VWS V14.01,2013-10-16 10:14:00,
2013-10-16 06:19:00,56.0,53.1,29.95,South,180,5.0,16.0,90,0.02,,---,0.02,VWS V14.01,2013-10-16 10:19:00,
2013-10-16 06:24:00,56.0,53.1,29.95,South,180,3.0,16.0,90,0.01,,---,0.02,VWS V14.01,2013-10-16 10:24:00,
2013-10-16 06:29:00,56.0,53.1,29.95,SW,225,6.0,16.0,90,0.01,,---,0.02,VWS V14.01,2013-10-16 10:29:00,
2013-10-16 06:34:00,56.0,53.4,29.95,SSW,202,5.0,16.0,91,0.02,,---,0.03,VWS V14.01,2013-10-16 10:34:00,
2013-10-16 06:39:00,56.0,53.4,29.95,SSE,158,6.0,16.0,91,0.02,,---,0.03,VWS V14.01,2013-10-16 10:39:00,
2013-10-16 06:44:00,56.0,53.4,29.95,SSE,158,6.0,11.0,91,0.02,,---,0.03,VWS V14.01,2013-10-16 10:44:00,
2013-10-16 06:49:00,56.0,53.7,29.95,WSW,248,2.0,11.0,92,0.02,,---,0.03,VWS V14.01,2013-10-16 10:49:00,
2013-10-16 06:54:00,56.0,53.7,29.96,SSW,202,5.0,11.0,92,0.02,,---,0.03,VWS V14.01,2013-10-16 10:54:00,
2013-10-16 07:00:00,56.0,53.7,29.96,SW,225,5.0,11.0,92,0.02,,---,0.03,VWS V14.01,2013-10-16 11:00:00,
2013-10-16 07:05:00,56.0,53.7,29.95,South,180,7.0,11.0,92,0.01,,---,0.03,VWS V14.01,2013-10-16 11:05:00,
2013-10-16 07:10:00,56.0,53.7,29.95,SE,135,8.0,11.0,92,0.01,,---,0.03,VWS V14.01,2013-10-16 11:10:00,
2013-10-16 07:15:00,56.0,53.7,29.95,South,180,6.0,12.0,92,0.01,,---,0.03,VWS V14.01,2013-10-16 11:15:00,
2013-10-16 07:20:00,56.0,53.7,29.95,South,180,10.0,12.0,92,0.01,,---,0.03,VWS V14.01,2013-10-16 11:20:00,
2013-10-16 07:25:00,56.0,53.7,29.95,South,180,10.0,13.0,92,0.01,,---,0.03,VWS V14.01,2013-10-16 11:25:00,
2013-10-16 07:30:00,56.0,53.7,29.95,SSW,202,7.0,13.0,92,0.01,,---,0.03,VWS V14.01,2013-10-16 11:30:00,
2013-10-16 07:35:00,56.0,53.7,29.95,SSW,202,4.0,13.0,92,0.01,,---,0.03,VWS V14.01,2013-10-16 11:35:00,
2013-10-16 07:40:00,56.0,53.4,29.95,SSW,202,3.0,6.0,91,0.00,,---,0.03,VWS V14.01,2013-10-16 11:40:00,
2013-10-16 07:45:00,56.0,53.7,29.95,SSE,158,8.0,10.0,92,0.00,,---,0.03,VWS V14.01,2013-10-16 11:45:00,
2013-10-16 07:50:00,56.0,53.4,29.94,SE,135,7.0,13.0,91,0.00,,---,0.03,VWS V14.01,2013-10-16 11:50:00,
2013-10-16 07:55:00,56.0,53.4,29.94,South,180,7.0,13.0,91,0.00,,---,0.03,VWS V14.01,2013-10-16 11:55:00,
2013-10-16 08:01:00,56.0,53.4,29.95,SSW,202,6.0,8.0,91,0.00,,---,0.03,VWS V14.01,2013-10-16 12:01:00,
2013-10-16 08:06:00,56.0,53.4,29.95,SE,135,8.0,13.0,91,0.00,,---,0.03,VWS V14.01,2013-10-16 12:06:00,
2013-10-16 08:11:00,56.0,53.4,29.95,SSE,158,10.0,13.0,91,0.00,,---,0.03,VWS V14.01,2013-10-16 12:11:00,
2013-10-16 08:16:00,56.0,53.4,29.95,SE,135,6.0,13.0,91,0.00,,---,0.03,VWS V14.01,2013-10-16 12:16:00,
2013-10-16 08:21:00,56.0,53.4,29.95,South,180,5.0,9.0,91,0.00,,---,0.03,VWS V14.01,2013-10-16 12:21:00,
2013-10-16 08:26:00,56.0,53.4,29.95,South,180,8.0,10.0,91,0.00,,---,0.03,VWS V14.01,2013-10-16 12:26:00,
2013-10-16 08:31:00,56.0,53.4,29.95,SSE,158,3.0,10.0,91,0.00,,---,0.03,VWS V14.01,2013-10-16 12:31:00,
2013-10-16 08:36:00,56.0,53.4,29.96,SSE,158,7.0,12.0,91,0.00,,---,0.03,VWS V14.01,2013-10-16 12:36:00,
2013-10-16 08:41:00,56.0,53.4,29.95,SSW,202,6.0,7.0,91,0.00,,---,0.03,VWS V14.01,2013-10-16 12:41:00,
2013-10-16 08:46:00,56.0,53.4,29.96,SSW,202,7.0,11.0,91,0.00,,---,0.03,VWS V14.01,2013-10-16 12:46:00,
2013-10-16 08:51:00,56.0,53.4,29.95,SSW,202,7.0,13.0,91,0.00,,---,0.03,VWS V14.01,2013-10-16 12:51:00,
2013-10-16 08:57:00,56.0,53.4,29.96,SSW,202,6.0,13.0,91,0.00,,---,0.03,VWS V14.01,2013-10-16 12:57:00,
2013-10-16 09:02:00,56.0,53.7,29.95,South,180,4.0,7.0,92,0.00,,---,0.03,VWS V14.01,2013-10-16 13:02:00,
2013-10-16 09:07:00,56.0,53.7,29.96,SW,225,8.0,13.0,92,0.00,,---,0.03,VWS V14.01,2013-10-16 13:07:00,
2013-10-16 09:12:00,56.0,53.7,29.95,South,180,7.0,13.0,92,0.00,,---,0.03,VWS V14.01,2013-10-16 13:12:00,
2013-10-16 09:17:00,56.0,53.7,29.95,South,180,6.0,13.0,92,0.00,,---,0.03,VWS V14.01,2013-10-16 13:17:00,
2013-10-16 09:22:00,56.0,54.0,29.95,SSE,158,9.0,11.0,93,0.01,,---,0.04,VWS V14.01,2013-10-16 13:22:00,
2013-10-16 09:27:00,56.0,54.0,29.95,South,180,4.0,11.0,93,0.01,,---,0.04,VWS V14.01,2013-10-16 13:27:00,
2013-10-16 09:32:00,56.0,54.3,29.95,SSE,158,6.0,11.0,94,0.02,,---,0.05,VWS V14.01,2013-10-16 13:32:00,
2013-10-16 09:37:00,56.0,54.3,29.95,SW,225,4.0,11.0,94,0.02,,---,0.05,VWS V14.01,2013-10-16 13:37:00,
2013-10-16 09:42:00,56.0,54.3,29.95,SSE,158,3.0,10.0,94,0.03,,---,0.06,VWS V14.01,2013-10-16 13:42:00,
2013-10-16 09:48:00,56.0,54.3,29.95,SSW,202,5.0,10.0,94,0.03,,---,0.06,VWS V14.01,2013-10-16 13:48:00,
2013-10-16 09:53:00,56.0,54.3,29.95,South,180,3.0,11.0,94,0.03,,---,0.06,VWS V14.01,2013-10-16 13:53:00,
2013-10-16 09:58:00,56.0,54.3,29.94,South,180,8.0,13.0,94,0.03,,---,0.06,VWS V14.01,2013-10-16 13:58:00,
2013-10-16 10:03:00,56.0,54.6,29.95,SW,225,7.0,9.0,95,0.03,,---,0.06,VWS V14.01,2013-10-16 14:03:00,
2013-10-16 10:08:00,57.0,55.6,29.95,SSE,158,5.0,10.0,95,0.03,,---,0.06,VWS V14.01,2013-10-16 14:08:00,
2013-10-16 10:13:00,57.0,55.6,29.95,SSE,158,6.0,11.0,95,0.03,,---,0.06,VWS V14.01,2013-10-16 14:13:00,
2013-10-16 10:18:00,57.0,55.6,29.94,South,180,6.0,11.0,95,0.03,,---,0.06,VWS V14.01,2013-10-16 14:18:00,
2013-10-16 10:23:00,57.0,55.6,29.94,SSE,158,7.0,9.0,95,0.03,,---,0.07,VWS V14.01,2013-10-16 14:23:00,
2013-10-16 10:28:00,57.0,55.6,29.94,South,180,6.0,11.0,95,0.03,,---,0.07,VWS V14.01,2013-10-16 14:28:00,
2013-10-16 10:33:00,57.0,55.6,29.94,SSE,158,5.0,12.0,95,0.03,,---,0.07,VWS V14.01,2013-10-16 14:33:00,
2013-10-16 10:38:00,57.0,55.6,29.94,SSW,202,5.0,12.0,95,0.03,,---,0.07,VWS V14.01,2013-10-16 14:38:00,
2013-10-16 10:43:00,57.0,55.6,29.93,South,180,10.0,14.0,95,0.02,,---,0.07,VWS V14.01,2013-10-16 14:43:00,
2013-10-16 10:49:00,57.0,55.6,29.93,South,180,6.0,14.0,95,0.02,,---,0.07,VWS V14.01,2013-10-16 14:49:00,
2013-10-16 10:54:00,58.0,56.6,29.94,SSW,202,7.0,14.0,95,0.02,,---,0.07,VWS V14.01,2013-10-16 14:54:00,
2013-10-16 10:59:00,58.0,56.6,29.94,SW,225,6.0,14.0,95,0.02,,---,0.07,VWS V14.01,2013-10-16 14:59:00,
2013-10-16 11:04:00,58.0,56.6,29.94,SSW,202,2.0,8.0,95,0.01,,---,0.07,VWS V14.01,2013-10-16 15:04:00,
2013-10-16 11:09:00,58.0,56.6,29.93,ESE,112,5.0,9.0,95,0.01,,---,0.07,VWS V14.01,2013-10-16 15:09:00,
2013-10-16 11:14:00,58.0,56.3,29.93,SSE,158,2.0,9.0,94,0.01,,---,0.07,VWS V14.01,2013-10-16 15:14:00,
2013-10-16 11:19:00,58.0,56.3,29.92,SSE,158,6.0,12.0,94,0.01,,---,0.07,VWS V14.01,2013-10-16 15:19:00,
2013-10-16 11:24:00,58.0,56.3,29.92,SE,135,8.0,11.0,94,0.01,,---,0.07,VWS V14.01,2013-10-16 15:24:00,
2013-10-16 11:29:00,58.0,56.3,29.92,South,180,9.0,11.0,94,0.01,,---,0.07,VWS V14.01,2013-10-16 15:29:00,
2013-10-16 11:34:00,58.0,56.3,29.93,SW,225,3.0,11.0,94,0.01,,---,0.07,VWS V14.01,2013-10-16 15:34:00,
2013-10-16 11:39:00,59.0,57.3,29.92,SSE,158,6.0,11.0,94,0.01,,---,0.07,VWS V14.01,2013-10-16 15:39:00,
2013-10-16 11:44:00,59.0,57.0,29.92,SSE,158,3.0,10.0,93,0.00,,---,0.07,VWS V14.01,2013-10-16 15:44:00,
2013-10-16 11:50:00,59.0,57.0,29.92,SSE,158,7.0,10.0,93,0.00,,---,0.07,VWS V14.01,2013-10-16 15:50:00,
2013-10-16 11:55:00,59.0,57.0,29.92,SSW,202,3.0,10.0,93,0.00,,---,0.07,VWS V14.01,2013-10-16 15:55:00,
2013-10-16 12:00:00,59.0,57.0,29.93,SW,225,3.0,10.0,93,0.00,,---,0.07,VWS V14.01,2013-10-16 16:00:00,
2013-10-16 12:05:00,59.0,57.0,29.93,South,180,5.0,6.0,93,0.00,,---,0.07,VWS V14.01,2013-10-16 16:05:00,
2013-10-16 12:10:00,59.0,57.0,29.94,SW,225,5.0,13.0,93,0.00,,---,0.07,VWS V14.01,2013-10-16 16:10:00,
2013-10-16 12:15:00,59.0,57.0,29.94,SW,225,3.0,13.0,93,0.00,,---,0.07,VWS V14.01,2013-10-16 16:15:00,
2013-10-16 12:20:00,59.0,57.0,29.93,SE,135,3.0,4.0,93,0.00,,---,0.07,VWS V14.01,2013-10-16 16:20:00,
2013-10-16 12:25:00,59.0,57.0,29.93,South,180,4.0,6.0,93,0.00,,---,0.07,VWS V14.01,2013-10-16 16:25:00,
2013-10-16 12:30:00,59.0,57.0,29.92,SSE,158,3.0,6.0,93,0.00,,---,0.07,VWS V14.01,2013-10-16 16:30:00,
2013-10-16 12:35:00,59.0,57.0,29.92,SSW,202,5.0,8.0,93,0.00,,---,0.07,VWS V14.01,2013-10-16 16:35:00,
2013-10-16 12:40:00,59.0,56.7,29.92,SSE,158,8.0,8.0,92,0.00,,---,0.07,VWS V14.01,2013-10-16 16:40:00,
2013-10-16 12:46:00,59.0,56.7,29.92,South,180,3.0,11.0,92,0.00,,---,0.07,VWS V14.01,2013-10-16 16:46:00,
2013-10-16 12:51:00,60.0,57.7,29.91,SE,135,5.0,11.0,92,0.00,,---,0.07,VWS V14.01,2013-10-16 16:51:00,
2013-10-16 12:56:00,59.0,56.4,29.91,SE,135,7.0,11.0,91,0.00,,---,0.07,VWS V14.01,2013-10-16 16:56:00,
2013-10-16 13:01:00,59.0,56.4,29.91,SSW,202,5.0,8.0,91,0.00,,---,0.07,VWS V14.01,2013-10-16 17:01:00,
2013-10-16 13:06:00,59.0,56.4,29.91,SE,135,5.0,10.0,91,0.00,,---,0.07,VWS V14.01,2013-10-16 17:06:00,
2013-10-16 13:11:00,59.0,56.4,29.91,ESE,112,5.0,10.0,91,0.00,,---,0.07,VWS V14.01,2013-10-16 17:11:00,
2013-10-16 13:16:00,59.0,56.4,29.91,SSE,158,6.0,11.0,91,0.00,,---,0.07,VWS V14.01,2013-10-16 17:16:00,
2013-10-16 13:21:00,59.0,56.4,29.89,SSE,158,5.0,8.0,91,0.00,,---,0.07,VWS V14.01,2013-10-16 17:21:00,
2013-10-16 13:26:00,59.0,56.1,29.90,SSW,202,4.0,10.0,90,0.00,,---,0.07,VWS V14.01,2013-10-16 17:26:00,
2013-10-16 13:31:00,59.0,56.1,29.90,SE,135,5.0,10.0,90,0.00,,---,0.07,VWS V14.01,2013-10-16 17:31:00,
2013-10-16 13:37:00,60.0,57.1,29.90,SSE,158,10.0,10.0,90,0.00,,---,0.07,VWS V14.01,2013-10-16 17:37:00,
2013-10-16 13:42:00,60.0,57.1,29.89,SE,135,8.0,10.0,90,0.00,,---,0.07,VWS V14.01,2013-10-16 17:42:00,
2013-10-16 13:47:00,60.0,57.1,29.88,SE,135,8.0,11.0,90,0.00,,---,0.07,VWS V14.01,2013-10-16 17:47:00,
2013-10-16 13:52:00,60.0,57.1,29.90,SW,225,5.0,11.0,90,0.00,,---,0.07,VWS V14.01,2013-10-16 17:52:00,
2013-10-16 13:57:00,60.0,56.8,29.89,SSE,158,3.0,11.0,89,0.00,,---,0.07,VWS V14.01,2013-10-16 17:57:00,
2013-10-16 14:02:00,60.0,56.8,29.90,South,180,5.0,8.0,89,0.00,,---,0.07,VWS V14.01,2013-10-16 18:02:00,
2013-10-16 14:07:00,60.0,56.8,29.89,South,180,6.0,8.0,89,0.00,,---,0.07,VWS V14.01,2013-10-16 18:07:00,
2013-10-16 14:12:00,60.0,56.8,29.89,SSW,202,3.0,8.0,89,0.00,,---,0.07,VWS V14.01,2013-10-16 18:12:00,
2013-10-16 14:17:00,60.0,56.8,29.89,South,180,3.0,8.0,89,0.00,,---,0.07,VWS V14.01,2013-10-16 18:17:00,
2013-10-16 14:23:00,61.0,57.4,29.89,SW,225,6.0,11.0,88,0.00,,---,0.07,VWS V14.01,2013-10-16 18:23:00,
2013-10-16 14:28:00,61.0,57.4,29.89,SSE,158,12.0,14.0,88,0.00,,---,0.07,VWS V14.01,2013-10-16 18:28:00,
2013-10-16 14:29:00,61.0,57.4,29.89,SW,225,10.0,14.0,88,0.00,,---,0.07,VWS V14.01,2013-10-16 18:29:00,
2013-10-16 14:34:00,61.0,57.4,29.89,SSW,202,10.0,14.0,88,0.00,,---,0.07,VWS V14.01,2013-10-16 18:34:00,
2013-10-16 14:39:00,61.0,57.4,29.88,South,180,6.0,16.0,88,0.00,,---,0.07,VWS V14.01,2013-10-16 18:39:00,
2013-10-16 14:44:00,61.0,57.4,29.88,SSW,202,8.0,13.0,88,0.00,,---,0.07,VWS V14.01,2013-10-16 18:44:00,
2013-10-16 14:49:00,61.0,57.4,29.88,SW,225,10.0,16.0,88,0.00,,---,0.07,VWS V14.01,2013-10-16 18:49:00,
2013-10-16 14:54:00,61.0,57.4,29.88,SSW,202,10.0,16.0,88,0.00,,---,0.07,VWS V14.01,2013-10-16 18:54:00,
2013-10-16 14:59:00,61.0,57.4,29.88,SSW,202,11.0,16.0,88,0.00,,---,0.07,VWS V14.01,2013-10-16 18:59:00,
2013-10-16 15:04:00,61.0,57.4,29.88,SW,225,8.0,11.0,88,0.00,,---,0.07,VWS V14.01,2013-10-16 19:04:00,
2013-10-16 15:09:00,61.0,57.1,29.88,South,180,9.0,14.0,87,0.00,,---,0.07,VWS V14.01,2013-10-16 19:09:00,
2013-10-16 15:14:00,61.0,57.4,29.88,SW,225,10.0,14.0,88,0.00,,---,0.07,VWS V14.01,2013-10-16 19:14:00,
2013-10-16 15:20:00,61.0,57.1,29.87,SW,225,4.0,16.0,87,0.00,,---,0.07,VWS V14.01,2013-10-16 19:20:00,
2013-10-16 15:25:00,61.0,57.4,29.87,South,180,5.0,11.0,88,0.00,,---,0.07,VWS V14.01,2013-10-16 19:25:00,
2013-10-16 15:30:00,61.0,56.8,29.86,SW,225,3.0,11.0,86,0.00,,---,0.07,VWS V14.01,2013-10-16 19:30:00,
2013-10-16 15:35:00,62.0,58.1,29.86,SW,225,5.0,11.0,87,0.00,,---,0.07,VWS V14.01,2013-10-16 19:35:00,
2013-10-16 15:40:00,62.0,57.8,29.86,South,180,5.0,11.0,86,0.00,,---,0.07,VWS V14.01,2013-10-16 19:40:00,
2013-10-16 15:45:00,62.0,57.8,29.86,SSE,158,8.0,12.0,86,0.00,,---,0.07,VWS V14.01,2013-10-16 19:45:00,
2013-10-16 15:50:00,62.0,57.8,29.85,SSW,202,11.0,12.0,86,0.00,,---,0.07,VWS V14.01,2013-10-16 19:50:00,
2013-10-16 15:55:00,62.0,57.5,29.85,SSE,158,8.0,15.0,85,0.00,,---,0.07,VWS V14.01,2013-10-16 19:55:00,
2013-10-16 16:00:00,62.0,57.5,29.85,South,180,7.0,8.0,85,0.00,,---,0.07,VWS V14.01,2013-10-16 20:00:00,
2013-10-16 16:06:00,62.0,57.1,29.84,SSW,202,12.0,21.0,84,0.00,,---,0.07,VWS V14.01,2013-10-16 20:06:00,
2013-10-16 16:11:00,62.0,57.5,29.85,ESE,112,5.0,21.0,85,0.00,,---,0.07,VWS V14.01,2013-10-16 20:11:00,
2013-10-16 16:16:00,62.0,57.5,29.84,South,180,5.0,21.0,85,0.00,,---,0.07,VWS V14.01,2013-10-16 20:16:00,
2013-10-16 16:21:00,62.0,57.5,29.85,SW,225,5.0,6.0,85,0.00,,---,0.07,VWS V14.01,2013-10-16 20:21:00,
2013-10-16 16:26:00,62.0,57.5,29.85,South,180,6.0,11.0,85,0.00,,---,0.07,VWS V14.01,2013-10-16 20:26:00,
2013-10-16 16:31:00,62.0,57.5,29.85,SSE,158,5.0,17.0,85,0.00,,---,0.07,VWS V14.01,2013-10-16 20:31:00,
2013-10-16 16:36:00,62.0,57.8,29.85,SW,225,7.0,17.0,86,0.00,,---,0.07,VWS V14.01,2013-10-16 20:36:00,
2013-10-16 16:41:00,62.0,57.8,29.84,SSE,158,5.0,12.0,86,0.00,,---,0.07,VWS V14.01,2013-10-16 20:41:00,
2013-10-16 16:47:00,62.0,57.8,29.84,SE,135,8.0,14.0,86,0.00,,---,0.07,VWS V14.01,2013-10-16 20:47:00,
2013-10-16 16:52:00,62.0,57.8,29.85,SW,225,4.0,14.0,86,0.00,,---,0.07,VWS V14.01,2013-10-16 20:52:00,
2013-10-16 16:57:00,62.0,58.1,29.85,SSW,202,11.0,14.0,87,0.00,,---,0.07,VWS V14.01,2013-10-16 20:57:00,
2013-10-16 17:02:00,61.0,57.1,29.85,SW,225,11.0,17.0,87,0.00,,---,0.07,VWS V14.01,2013-10-16 21:02:00,
2013-10-16 17:07:00,61.0,57.4,29.84,South,180,13.0,17.0,88,0.00,,---,0.07,VWS V14.01,2013-10-16 21:07:00,
2013-10-16 17:12:00,61.0,57.4,29.84,WSW,248,5.0,17.0,88,0.00,,---,0.07,VWS V14.01,2013-10-16 21:12:00,
2013-10-16 17:17:00,61.0,57.4,29.84,SE,135,8.0,17.0,88,0.00,,---,0.07,VWS V14.01,2013-10-16 21:17:00,
2013-10-16 17:23:00,61.0,57.7,29.84,WSW,248,4.0,9.0,89,0.00,,---,0.07,VWS V14.01,2013-10-16 21:23:00,
2013-10-16 17:28:00,61.0,57.7,29.84,SW,225,6.0,11.0,89,0.00,,---,0.07,VWS V14.01,2013-10-16 21:28:00,
2013-10-16 17:33:00,61.0,57.7,29.84,South,180,6.0,11.0,89,0.00,,---,0.07,VWS V14.01,2013-10-16 21:33:00,
2013-10-16 17:38:00,61.0,57.7,29.84,South,180,5.0,11.0,89,0.00,,---,0.07,VWS V14.01,2013-10-16 21:38:00,
2013-10-16 17:43:00,61.0,57.7,29.84,SE,135,3.0,12.0,89,0.00,,---,0.07,VWS V14.01,2013-10-16 21:43:00,
2013-10-16 17:48:00,61.0,57.7,29.84,SW,225,6.0,12.0,89,0.00,,---,0.07,VWS V14.01,2013-10-16 21:48:00,
2013-10-16 17:53:00,61.0,58.0,29.84,South,180,9.0,12.0,90,0.01,,---,0.08,VWS V14.01,2013-10-16 21:53:00,
2013-10-16 17:58:00,61.0,58.0,29.84,SE,135,5.0,12.0,90,0.01,,---,0.08,VWS V14.01,2013-10-16 21:58:00,
2013-10-16 18:04:00,61.0,58.4,29.83,SSE,158,5.0,10.0,91,0.02,,---,0.09,VWS V14.01,2013-10-16 22:04:00,
2013-10-16 18:09:00,61.0,58.7,29.83,South,180,7.0,11.0,92,0.03,,---,0.10,VWS V14.01,2013-10-16 22:09:00,
2013-10-16 18:14:00,60.0,57.7,29.83,South,180,9.0,11.0,92,0.04,,---,0.11,VWS V14.01,2013-10-16 22:14:00,
2013-10-16 18:19:00,60.0,57.7,29.83,SW,225,5.0,13.0,92,0.05,,---,0.12,VWS V14.01,2013-10-16 22:19:00,
2013-10-16 18:24:00,60.0,58.0,29.83,SSW,202,8.0,12.0,93,0.06,,---,0.13,VWS V14.01,2013-10-16 22:24:00,
2013-10-16 18:29:00,60.0,58.0,29.83,SSW,202,3.0,12.0,93,0.07,,---,0.14,VWS V14.01,2013-10-16 22:29:00,
2013-10-16 18:34:00,60.0,58.0,29.83,SSE,158,6.0,12.0,93,0.08,,---,0.15,VWS V14.01,2013-10-16 22:34:00,
2013-10-16 18:39:00,60.0,58.0,29.82,South,180,8.0,12.0,93,0.09,,---,0.16,VWS V14.01,2013-10-16 22:39:00,
2013-10-16 18:44:00,60.0,58.3,29.83,South,180,6.0,8.0,94,0.10,,---,0.17,VWS V14.01,2013-10-16 22:44:00,
2013-10-16 18:49:00,60.0,58.3,29.84,West,270,9.0,10.0,94,0.14,,---,0.21,VWS V14.01,2013-10-16 22:49:00,
2013-10-16 18:55:00,60.0,58.6,29.84,SW,225,13.0,13.0,95,0.21,,---,0.28,VWS V14.01,2013-10-16 22:55:00,
2013-10-16 19:00:00,60.0,58.6,29.84,West,270,6.0,14.0,95,0.22,,---,0.29,VWS V14.01,2013-10-16 23:00:00,
2013-10-16 19:05:00,60.0,58.6,29.84,NNW,338,3.0,14.0,95,0.23,,---,0.31,VWS V14.01,2013-10-16 23:05:00,
2013-10-16 19:10:00,60.0,58.9,29.84,WNW,292,2.0,14.0,96,0.25,,---,0.33,VWS V14.01,2013-10-16 23:10:00,
2013-10-16 19:15:00,60.0,58.9,29.85,West,270,6.0,14.0,96,0.28,,---,0.36,VWS V14.01,2013-10-16 23:15:00,
2013-10-16 19:20:00,59.0,57.9,29.85,WSW,248,5.0,14.0,96,0.29,,---,0.37,VWS V14.01,2013-10-16 23:20:00,
2013-10-16 19:25:00,59.0,57.6,29.85,WSW,248,8.0,15.0,95,0.24,,---,0.37,VWS V14.01,2013-10-16 23:25:00,
2013-10-16 19:30:00,59.0,57.9,29.85,WNW,292,8.0,15.0,96,0.25,,---,0.38,VWS V14.01,2013-10-16 23:30:00,
2013-10-16 19:35:00,58.0,56.9,29.86,West,270,10.0,15.0,96,0.27,,---,0.40,VWS V14.01,2013-10-16 23:35:00,
2013-10-16 19:41:00,58.0,56.6,29.86,WSW,248,12.0,13.0,95,0.25,,---,0.41,VWS V14.01,2013-10-16 23:41:00,
2013-10-16 19:46:00,58.0,56.6,29.86,WNW,292,11.0,14.0,95,0.26,,---,0.42,VWS V14.01,2013-10-16 23:46:00,
2013-10-16 19:51:00,57.0,55.6,29.86,WNW,292,14.0,18.0,95,0.26,,---,0.42,VWS V14.01,2013-10-16 23:51:00,
2013-10-16 19:56:00,57.0,55.6,29.87,WSW,248,12.0,19.0,95,0.26,,---,0.42,VWS V14.01,2013-10-16 23:56:00,
2013-10-16 20:01:00,57.0,55.6,29.87,West,270,7.0,13.0,95,0.13,,---,0.42,VWS V14.01,2013-10-17 00:01:00,
2013-10-16 20:06:00,57.0,55.3,29.87,WNW,292,8.0,17.0,94,0.13,,---,0.42,VWS V14.01,2013-10-17 00:06:00,
2013-10-16 20:11:00,57.0,55.6,29.87,West,270,9.0,17.0,95,0.13,,---,0.42,VWS V14.01,2013-10-17 00:11:00,
2013-10-16 20:16:00,57.0,55.6,29.87,West,270,8.0,17.0,95,0.13,,---,0.42,VWS V14.01,2013-10-17 00:16:00,
2013-10-16 20:21:00,57.0,55.6,29.87,West,270,8.0,9.0,95,0.05,,---,0.42,VWS V14.01,2013-10-17 00:21:00,
2013-10-16 20:27:00,56.0,54.3,29.88,West,270,8.0,14.0,94,0.05,,---,0.42,VWS V14.01,2013-10-17 00:27:00,
2013-10-16 20:32:00,56.0,54.3,29.88,West,270,12.0,14.0,94,0.05,,---,0.42,VWS V14.01,2013-10-17 00:32:00,
2013-10-16 20:37:00,56.0,54.3,29.88,SW,225,8.0,16.0,94,0.05,,---,0.42,VWS V14.01,2013-10-17 00:37:00,
2013-10-16 20:42:00,56.0,54.0,29.88,West,270,5.0,8.0,93,0.01,,---,0.42,VWS V14.01,2013-10-17 00:42:00,
2013-10-16 20:47:00,56.0,54.0,29.89,WSW,248,10.0,11.0,93,0.01,,---,0.42,VWS V14.01,2013-10-17 00:47:00,
2013-10-16 20:52:00,56.0,54.0,29.89,West,270,8.0,11.0,93,0.02,,---,0.43,VWS V14.01,2013-10-17 00:52:00,
2013-10-16 20:57:00,56.0,54.0,29.89,WSW,248,8.0,11.0,93,0.02,,---,0.43,VWS V14.01,2013-10-17 00:57:00,
2013-10-16 21:02:00,56.0,54.0,29.89,West,270,6.0,10.0,93,0.01,,---,0.43,VWS V14.01,2013-10-17 01:02:00,
2013-10-16 21:08:00,56.0,54.0,29.90,West,270,8.0,11.0,93,0.01,,---,0.43,VWS V14.01,2013-10-17 01:08:00,
2013-10-16 21:13:00,56.0,54.0,29.89,WSW,248,16.0,17.0,93,0.01,,---,0.43,VWS V14.01,2013-10-17 01:13:00,
2013-10-16 21:18:00,56.0,53.7,29.90,WSW,248,8.0,17.0,92,0.01,,---,0.43,VWS V14.01,2013-10-17 01:18:00,
2013-10-16 21:23:00,56.0,53.7,29.90,WNW,292,8.0,14.0,92,0.01,,---,0.43,VWS V14.01,2013-10-17 01:23:00,
2013-10-16 21:28:00,56.0,53.7,29.90,WSW,248,6.0,14.0,92,0.01,,---,0.43,VWS V14.01,2013-10-17 01:28:00,
2013-10-16 21:33:00,56.0,53.7,29.90,WSW,248,9.0,14.0,92,0.01,,---,0.43,VWS V14.01,2013-10-17 01:33:00,
2013-10-16 21:38:00,56.0,53.7,29.90,WNW,292,11.0,14.0,92,0.01,,---,0.43,VWS V14.01,2013-10-17 01:38:00,
2013-10-16 21:43:00,56.0,53.4,29.90,WNW,292,9.0,11.0,91,0.01,,---,0.43,VWS V14.01,2013-10-17 01:43:00,
2013-10-16 21:49:00,55.0,52.4,29.90,WNW,292,8.0,14.0,91,0.01,,---,0.43,VWS V14.01,2013-10-17 01:49:00,
2013-10-16 21:54:00,55.0,52.4,29.90,West,270,4.0,14.0,91,0.01,,---,0.43,VWS V14.01,2013-10-17 01:54:00,
2013-10-16 21:59:00,55.0,52.1,29.90,WNW,292,10.0,14.0,90,0.01,,---,0.43,VWS V14.01,2013-10-17 01:59:00,
2013-10-16 22:04:00,55.0,52.1,29.91,West,270,10.0,14.0,90,0.00,,---,0.43,VWS V14.01,2013-10-17 02:04:00,
2013-10-16 22:09:00,55.0,51.8,29.91,West,270,6.0,16.0,89,0.00,,---,0.43,VWS V14.01,2013-10-17 02:09:00,
2013-10-16 22:14:00,55.0,51.5,29.91,West,270,7.0,16.0,88,0.00,,---,0.43,VWS V14.01,2013-10-17 02:14:00,
2013-10-16 22:19:00,55.0,51.5,29.91,West,270,10.0,16.0,88,0.00,,---,0.43,VWS V14.01,2013-10-17 02:19:00,
2013-10-16 22:24:00,55.0,51.2,29.91,WNW,292,7.0,11.0,87,0.00,,---,0.43,VWS V14.01,2013-10-17 02:24:00,
2013-10-16 22:30:00,55.0,51.2,29.91,WSW,248,7.0,11.0,87,0.00,,---,0.43,VWS V14.01,2013-10-17 02:30:00,
2013-10-16 22:35:00,55.0,51.2,29.91,WSW,248,8.0,11.0,87,0.00,,---,0.43,VWS V14.01,2013-10-17 02:35:00,
2013-10-16 22:40:00,55.0,51.2,29.91,WSW,248,8.0,12.0,87,0.00,,---,0.43,VWS V14.01,2013-10-17 02:40:00,
2013-10-16 22:45:00,55.0,51.2,29.91,West,270,5.0,10.0,87,0.00,,---,0.43,VWS V14.01,2013-10-17 02:45:00,
2013-10-16 22:50:00,55.0,51.5,29.91,West,270,5.0,11.0,88,0.00,,---,0.43,VWS V14.01,2013-10-17 02:50:00,
2013-10-16 22:55:00,54.0,50.2,29.91,West,270,6.0,11.0,87,0.00,,---,0.43,VWS V14.01,2013-10-17 02:55:00,
2013-10-16 23:00:00,54.0,50.5,29.91,West,270,5.0,6.0,88,0.00,,---,0.43,VWS V14.01,2013-10-17 03:00:00,
2013-10-16 23:05:00,54.0,50.5,29.91,West,270,5.0,9.0,88,0.00,,---,0.43,VWS V14.01,2013-10-17 03:05:00,
2013-10-16 23:11:00,54.0,50.5,29.91,West,270,3.0,9.0,88,0.00,,---,0.43,VWS V14.01,2013-10-17 03:11:00,
2013-10-16 23:16:00,54.0,50.5,29.92,WSW,248,4.0,9.0,88,0.00,,---,0.43,VWS V14.01,2013-10-17 03:16:00,
2013-10-16 23:21:00,54.0,50.8,29.92,WSW,248,5.0,7.0,89,0.00,,---,0.43,VWS V14.01,2013-10-17 03:21:00,
2013-10-16 23:26:00,54.0,50.8,29.92,West,270,3.0,7.0,89,0.00,,---,0.43,VWS V14.01,2013-10-17 03:26:00,
2013-10-16 23:31:00,53.0,49.8,29.92,WSW,248,5.0,7.0,89,0.00,,---,0.43,VWS V14.01,2013-10-17 03:31:00,
2013-10-16 23:36:00,53.0,49.8,29.92,WSW,248,7.0,8.0,89,0.00,,---,0.43,VWS V14.01,2013-10-17 03:36:00,
2013-10-16 23:41:00,53.0,49.8,29.92,WSW,248,5.0,6.0,89,0.00,,---,0.43,VWS V14.01,2013-10-17 03:41:00,
2013-10-16 23:46:00,53.0,49.8,29.92,West,270,6.0,8.0,89,0.00,,---,0.43,VWS V14.01,2013-10-17 03:46:00,
2013-10-16 23:52:00,53.0,50.2,29.92,WSW,248,5.0,8.0,90,0.00,,---,0.43,VWS V14.01,2013-10-17 03:52:00,
2013-10-16 23:57:00,53.0,49.8,29.92,WNW,292,3.0,8.0,89,0.00,,---,0.43,VWS V14.01,2013-10-17 03:57:00,